Date,TemperatureHighF,TemperatureAvgF,TemperatureLowF,DewpointHighF,DewpointAvgF,DewpointLowF,HumidityHigh,HumidityAvg,HumidityLow,PressureMaxIn,PressureMinIn,WindSpeedMaxMPH,WindSpeedAvgMPH,GustSpeedMaxMPH,PrecipitationSumIn
2013-2-1,16,10,5,11,1,-5,81,65,50,0.00,40.00,9,6,22,0.01
2013-2-2,19,10,-2,9,0,-7,85,67,43,0.00,40.00,5,3,14,0.00
2013-2-3,29,11,-1,9,2,-8,85,69,20,0.00,40.00,4,1,9,0.00
2013-2-4,18,11,1,9,0,-14,84,64,38,0.00,40.00,12,5,25,0.00
2013-2-5,19,5,-8,-2,-10,-15,73,52,24,0.00,40.00,4,2,14,0.00
2013-2-6,26,13,3,17,3,-9,81,65,36,0.00,40.00,10,4,23,0.00
2013-2-7,13,2,-7,-9,-15,-24,67,47,17,0.00,40.00,5,3,14,0.00
2013-2-8,19,13,4,13,5,-10,81,72,52,0.00,40.00,6,4,17,0.00
2013-2-9,13,9,2,7,0,-7,81,66,53,0.00,40.00,10,6,25,0.00
2013-2-10,32,9,-6,4,-4,-12,78,59,20,0.00,40.00,4,2,9,0.19
2013-2-11,34,20,1,32,15,-4,97,82,38,0.00,40.00,7,3,18,0.03
2013-2-12,35,32,29,31,27,24,97,83,76,0.00,40.00,11,6,28,0.22
2013-2-13,33,28,25,24,22,21,88,79,62,0.00,40.00,6,3,14,0.02
2013-2-14,34,27,23,23,20,16,90,75,55,0.00,40.00,4,2,10,0.01
2013-2-15,45,32,25,28,21,16,82,63,45,0.00,40.00,7,4,16,0.01
2013-2-16,31,24,13,19,10,2,78,55,36,0.00,40.00,6,3,15,0.00
2013-2-17,13,10,6,3,-1,-4,71,62,51,0.00,40.00,14,8,29,0.00
2013-2-18,20,8,1,-2,-7,-12,73,52,27,0.00,40.00,12,8,32,0.00
2013-2-19,42,21,-1,29,3,-9,91,50,15,0.00,40.00,6,2,15,0.00
2013-2-20,31,24,18,29,20,10,95,82,69,0.00,40.00,9,5,21,0.00
2013-2-21,22,13,7,17,6,0,83,73,62,0.00,40.00,9,5,21,0.00
2013-2-22,40,25,18,20,18,14,88,75,43,0.00,40.00,4,2,11,0.19
2013-2-23,35,29,23,28,22,17,95,77,59,0.00,40.00,5,3,14,0.14
2013-2-24,34,31,28,31,28,27,96,91,82,0.00,40.00,3,2,10,0.32
2013-2-25,40,31,28,28,27,25,96,83,58,0.00,40.00,4,2,8,0.17
2013-2-26,42,31,21,28,25,19,94,78,50,0.00,40.00,3,2,8,0.17
2013-2-27,36,32,29,29,23,20,92,71,63,0.00,40.00,9,6,23,0.00
2013-2-28,48,36,29,32,28,24,96,75,50,0.00,40.00,4,2,12,0.11